[[{"header":{"parameterUnit":"m.s-1","parameterCategory":1,"la1":30.2991,"la2":30.254,"lo1":-89.0895,"lo2":-89.0444,"dy":0.0017,"dx":0.0017,"nx":28,"ny":28,"refTime":"2023-09-13T21:00:00:Z","depth":0,"parameterNumber":2,"parameterNumberName":"U-component_of_WINDS"},"data":[0,0,0,0,0,0,0,0,0,0,0,0,0,0,0,0,0,0,0,0,0,0,0,0,0,0,0,0,0,0,0,0,0,0,0,0,0,0,0,0,0,0,0,0,0,0,0,0,0,0,0,0,0,0,0,0,0,0,-2.0113,-2.0113,0,-2.0089,-2.0089,-2.0089,-2.0059,-2.0058,-2.0058,-2.0057,-2.0032,-2.0031,-2.0031,0,0,0,0,0,0,0,0,0,0,0,0,0,-2.0131,-2.0131,-2.0113,-2.0113,-2.0112,-2.0089,-2.0089,-2.0089,-2.0059,-2.0058,-2.0058,-2.0057,-2.0032,-2.0031,-2.0031,0,0,0,0,0,0,0,0,0,0,0,0,0,-2.0117,-2.0131,-2.0113,-2.0095,-2.0093,-2.009,-2.0089,-2.0089,-2.0059,-2.0058,-2.0057,-2.0057,-2.0032,-2.0031,-2.0031,-2.0043,0,0,-2.003,-2.003,0,0,0,0,0,0,0,0,-2.0118,-2.0116,-2.0098,-2.0096,-2.0094,-2.0076,-2.0086,-2.0074,-2.0059,-2.0072,-2.0057,-2.0056,-2.0047,-2.0045,-2.0042,-2.0042,-2.0041,-2.003,-2.003,-2.003,-2.003,0,0,0,0,0,0,0,-2.0119,-2.0117,-2.0104,-2.0097,-2.0095,-2.0087,-2.0085,-2.0084,-2.0064,-2.0071,-2.0068,-2.0066,-2.0046,-2.0043,-2.0042,-2.0041,-2.003,-2.003,-2.0029,-2.0029,-2.005,-2.0051,0,0,0,0,0,0,-2.0123,-2.0118,-2.0104,-2.0103,-2.0104,-2.0088,-2.0084,-2.0083,-2.0064,-2.006,-2.0067,-2.0065,-2.0044,-2.0042,-2.0041,-2.0054,-2.003,-2.0029,-2.0029,-2.0049,-2.005,-2.0051,0,0,0,0,0,0,-2.0123,-2.0122,-2.0105,-2.011,-2.0107,-2.0088,-2.0086,-2.0083,-2.008,-2.0061,-2.0057,-2.0067,-2.0043,-2.0041,-2.0043,-2.0052,-2.0029,-2.0029,-2.0048,-2.0049,-2.005,-2.008,0,0,0,0,0,0,-2.0124,-2.0122,-2.0127,-2.011,-2.0107,-2.0109,-2.0087,-2.0083,-2.0079,-2.0076,-2.006,-2.0057,-2.0042,-2.0044,-2.0043,-2.0051,-2.0029,-2.0047,-2.0049,-2.005,-2.0078,-2.0082,-2.0086,0,0,0,0,0,-2.0125,-2.0136,-2.0127,-2.0126,-2.0113,-2.0109,-2.0107,-2.0091,-2.008,-2.0084,-2.0073,-2.0057,-2.0052,-2.0044,-2.0043,-2.0052,-2.0047,-2.0048,-2.005,-2.0077,-2.0081,-2.0086,0,0,0,0,0,0,-2.0153,-2.0133,-2.0123,-2.013,-2.0121,-2.0104,-2.0109,-2.0096,-2.0091,-2.0088,-2.0068,-2.0064,-2.0069,-2.006,-2.0052,-2.0063,-2.0047,-2.0049,-2.0068,-2.0072,-2.0076,-2.0077,-2.0028,0,0,0,0,0,-2.016,-2.0159,-2.0142,-2.0149,-2.0145,-2.0128,-2.0126,-2.0114,-2.0105,-2.0101,-2.0089,-2.008,-2.0076,-2.0074,-2.0069,-2.0077,-2.0073,-2.0083,-2.0087,-2.009,-2.0091,-2.0095,-2.0098,-2.0056,-2.0056,-2.0056,0,0,-2.0174,-2.0163,-2.0164,-2.0154,-2.0147,-2.0146,-2.0125,-2.0125,-2.0125,-2.0101,-2.0102,-2.0093,-2.0082,-2.0087,-2.0089,-2.008,-2.0102,-2.0092,-2.0094,-2.0094,-2.0097,-2.0101,-2.0104,-2.0058,-2.0057,-2.0057,0,0,-2.02,-2.0192,-2.0197,-2.019,-2.0179,-2.0167,-2.0169,-2.0154,-2.0147,-2.0148,-2.013,-2.0129,-2.0123,-2.0116,-2.0111,-2.0135,-2.0121,-2.0135,-2.0153,-2.0157,-2.016,-2.0163,-2.0171,-2.0175,-2.0136,-2.0136,-2.0136,0,-2.0219,-2.0217,-2.0201,-2.0202,-2.0199,-2.0178,-2.0183,-2.0177,-2.0164,-2.0162,-2.0153,-2.0146,-2.0136,-2.014,-2.0146,-2.0143,-2.0144,-2.0136,-2.0161,-2.0164,-2.0166,-2.0174,-2.0177,-2.0138,-2.0138,-2.0137,-2.0137,0,-2.0241,-2.0241,-2.0246,-2.0235,-2.0232,-2.0236,-2.0219,-2.0218,-2.0207,-2.0197,-2.0198,-2.0187,-2.018,-2.018,-2.0169,-2.0182,-2.0177,-2.0165,-2.0149,-2.0172,-2.0179,-2.0182,-2.014,-2.0139,-2.0139,-2.0139,0,0,-2.0282,-2.0264,-2.0266,-2.0261,-2.0248,-2.0247,-2.0249,-2.0243,-2.0242,-2.0235,-2.0236,-2.0232,-2.0221,-2.0216,-2.0204,-2.0208,-2.0228,-2.0195,-2.0195,-2.0201,-2.0241,-2.025,-2.0253,-2.0219,-2.0219,-2.022,-2.0242,0,-2.0305,-2.0308,-2.0294,-2.0301,-2.03,-2.0281,-2.0283,-2.0275,-2.0266,-2.0264,-2.0253,-2.025,-2.0236,-2.0233,-2.0236,-2.0225,-2.0235,-2.0223,-2.0219,-2.0219,-2.0222,-2.0257,-2.0265,-2.0287,-2.0244,-2.0245,-2.0245,0,-2.0331,-2.0326,-2.0333,-2.032,-2.0319,-2.0321,-2.0314,-2.0313,-2.0304,-2.0297,-2.0292,-2.0278,-2.028,-2.0265,-2.0266,-2.0259,-2.0256,-2.0251,-2.0251,-2.0249,-2.0233,-2.0255,-2.0293,-2.0296,-2.0249,-2.0249,-2.0249,0,-2.036,-2.0355,-2.0358,-2.0355,-2.034,-2.0342,-2.0336,-2.0326,-2.0323,-2.0317,-2.0315,-2.031,-2.0307,-2.0303,-2.0288,-2.0279,-2.0291,-2.0275,-2.0285,-2.0285,-2.0287,-2.0287,-2.0324,-2.0287,-2.0287,-2.0287,-2.0287,0,-2.0386,-2.039,-2.0371,-2.0373,-2.0378,-2.0362,-2.0367,-2.0359,-2.0351,-2.0351,-2.0334,-2.0334,-2.0316,-2.0314,-2.0303,-2.0305,-2.0304,-2.0298,-2.0295,-2.0299,-2.03,-2.0296,-2.0294,-2.0288,-2.0288,-2.0288,-2.0288,0,-2.0418,-2.0405,-2.0408,-2.0394,-2.039,-2.0395,-2.0383,-2.0384,-2.0374,-2.0374,-2.0374,-2.0358,-2.0355,-2.0341,-2.0334,-2.0327,-2.0333,-2.0327,-2.0336,-2.0334,-2.0344,-2.0343,-2.038,-2.0384,-2.0345,-2.0346,-2.0346,0,-2.0435,-2.0438,-2.0425,-2.0424,-2.0419,-2.0418,-2.0415,-2.04,-2.0398,-2.0388,-2.0391,-2.0387,-2.0382,-2.0379,-2.0367,-2.0362,-2.0355,-2.0369,-2.0354,-2.0358,-2.0354,-2.0354,-2.0354,-2.0371,-2.0372,-2.0372,-2.0372,0,-2.0466,-2.046,-2.0457,-2.0452,-2.045,-2.0445,-2.0439,-2.044,-2.0423,-2.0421,-2.0419,-2.0416,-2.041,-2.0406,-2.0399,-2.0392,-2.0379,-2.0377,-2.0379,-2.0383,-2.0388,-2.0385,-2.0344,-2.0376,-2.0376,-2.0376,-2.0375,-2.0375,-2.049,-2.0492,-2.0484,-2.0481,-2.0476,-2.0471,-2.0472,-2.0463,-2.046,-2.0454,-2.0446,-2.0444,-2.0435,-2.0425,-2.042,-2.0418,-2.0411,-2.0413,-2.0414,-2.0415,-2.0417,-2.0389,-2.0417,-2.0417,-2.0417,-2.0417,-2.0416,0,-2.052,-2.0514,-2.0512,-2.0505,-2.0503,-2.0492,-2.0486,-2.0485,-2.0484,-2.0477,-2.0474,-2.0471,-2.0467,-2.0456,-2.0451,-2.0452,-2.0446,-2.0451,-2.045,-2.0449,-2.0424,-2.0422,-2.0456,-2.0456,-2.0456,-2.0456,-2.0456,-2.0456,-2.0535,-2.0538,-2.0531,-2.0531,-2.0525,-2.0523,-2.0521,-2.0516,-2.0511,-2.0509,-2.0506,-2.0499,-2.049,-2.0485,-2.0481,-2.0478,-2.0476,-2.0483,-2.0478,-2.0454,-2.045,-2.0447,-2.0445,-2.0483,-2.0483,-2.0503,-2.0503,-2.0503]},{"header":{"parameterUnit":"m.s-1","parameterCategory":1,"la1":30.2991,"la2":30.254,"lo1":-89.0895,"lo2":-89.0444,"dy":0.0017,"dx":0.0017,"nx":28,"ny":28,"refTime":"2023-09-13T21:00:00:Z","depth":0,"parameterNumber":3,"parameterNumberName":"V-component_of_WINDS"},"data":[0,0,0,0,0,0,0,0,0,0,0,0,0,0,0,0,0,0,0,0,0,0,0,0,0,0,0,0,0,0,0,0,0,0,0,0,0,0,0,0,0,0,0,0,0,0,0,0,0,0,0,0,0,0,0,0,0,0,0.8783,0.8783,0,0.8728,0.8728,0.8727,0.8709,0.8709,0.871,0.871,0.8652,0.8651,0.8649,0,0,0,0,0,0,0,0,0,0,0,0,0,0.8873,0.8872,0.8783,0.8782,0.8782,0.8728,0.8728,0.8727,0.8709,0.8709,0.871,0.871,0.8653,0.8651,0.8649,0,0,0,0,0,0,0,0,0,0,0,0,0,0.8828,0.8871,0.8783,0.8766,0.8764,0.8729,0.8728,0.8727,0.8709,0.8709,0.871,0.871,0.8654,0.8651,0.8648,0.8625,0,0,0.864,0.8639,0,0,0,0,0,0,0,0,0.883,0.8824,0.877,0.8768,0.8765,0.8726,0.8738,0.8692,0.8709,0.873,0.871,0.871,0.8676,0.8672,0.8661,0.8622,0.862,0.864,0.8638,0.8637,0.8637,0,0,0,0,0,0,0,0.8834,0.8827,0.8761,0.8769,0.8766,0.8762,0.8756,0.873,0.8702,0.8728,0.8727,0.8721,0.8675,0.8663,0.8659,0.8619,0.864,0.8638,0.8636,0.8635,0.8561,0.856,0,0,0,0,0,0,0.884,0.8829,0.8763,0.876,0.8799,0.876,0.8753,0.8738,0.8702,0.8697,0.872,0.872,0.8668,0.8662,0.8657,0.8628,0.8637,0.8635,0.8633,0.8561,0.856,0.856,0,0,0,0,0,0,0.8842,0.8834,0.8765,0.8794,0.8785,0.8758,0.8741,0.8737,0.8725,0.8696,0.8691,0.8713,0.8668,0.8661,0.8634,0.8626,0.8634,0.8631,0.8561,0.8561,0.856,0.857,0,0,0,0,0,0,0.8844,0.8835,0.8825,0.8794,0.8784,0.8742,0.8741,0.8736,0.8721,0.872,0.8688,0.8683,0.8668,0.8638,0.8631,0.8623,0.8629,0.8562,0.8561,0.856,0.857,0.857,0.8569,0,0,0,0,0,0.8847,0.8829,0.8824,0.8817,0.8771,0.8742,0.8736,0.8719,0.872,0.871,0.8693,0.8684,0.8628,0.8635,0.8627,0.8618,0.8562,0.8561,0.856,0.857,0.857,0.8569,0,0,0,0,0,0,0.8858,0.8824,0.8819,0.879,0.8769,0.8739,0.8726,0.8718,0.8696,0.8696,0.8675,0.8668,0.8643,0.8628,0.8636,0.8595,0.8595,0.8593,0.8605,0.8604,0.8604,0.8608,0.8627,0,0,0,0,0,0.8857,0.8837,0.8808,0.8785,0.8775,0.8753,0.8739,0.8728,0.8706,0.8696,0.8676,0.8654,0.8632,0.8617,0.8595,0.8569,0.8562,0.8559,0.8558,0.8558,0.8556,0.8542,0.8541,0.8557,0.8557,0.8557,0,0,0.8855,0.8834,0.8822,0.8787,0.877,0.8749,0.8745,0.8723,0.8708,0.8693,0.8666,0.8651,0.8625,0.8599,0.8586,0.8585,0.855,0.8557,0.8557,0.8555,0.8541,0.854,0.8538,0.8556,0.8557,0.8557,0,0,0.884,0.8822,0.8801,0.8785,0.8759,0.8745,0.874,0.8712,0.8701,0.8675,0.8664,0.8646,0.8607,0.859,0.8576,0.8559,0.8551,0.8552,0.855,0.8537,0.8535,0.8534,0.8529,0.8527,0.855,0.855,0.855,0,0.884,0.8808,0.8792,0.8771,0.8757,0.8744,0.8724,0.8709,0.8677,0.8667,0.8667,0.8621,0.8602,0.8573,0.8569,0.8558,0.8552,0.8555,0.8537,0.8536,0.8534,0.8529,0.8527,0.8551,0.8551,0.8551,0.855,0,0.881,0.8788,0.8775,0.8746,0.8731,0.871,0.8692,0.8678,0.8669,0.8655,0.8629,0.8608,0.8582,0.8574,0.8564,0.8544,0.8544,0.8541,0.8541,0.8533,0.8528,0.8525,0.8551,0.8551,0.8551,0.8551,0,0,0.8797,0.8762,0.8757,0.8745,0.8717,0.87,0.8681,0.8656,0.8645,0.8625,0.8608,0.8577,0.8575,0.856,0.8549,0.8538,0.8527,0.8536,0.8535,0.8535,0.8503,0.8506,0.8503,0.8522,0.8521,0.8521,0.8506,0,0.8778,0.8742,0.8729,0.8699,0.868,0.867,0.8652,0.8634,0.8621,0.8604,0.8589,0.8568,0.8567,0.8558,0.8546,0.853,0.852,0.8531,0.8506,0.8505,0.8512,0.85,0.8502,0.8488,0.8503,0.8503,0.8503,0,0.8751,0.8732,0.8701,0.8678,0.8669,0.8654,0.8632,0.8615,0.8595,0.8586,0.8571,0.8561,0.8541,0.8544,0.8516,0.8524,0.8514,0.8505,0.8504,0.85,0.8503,0.8496,0.8483,0.8481,0.8499,0.8499,0.8499,0,0.8745,0.8712,0.8689,0.8679,0.8651,0.8641,0.8629,0.8609,0.8597,0.8578,0.857,0.8548,0.8537,0.8521,0.8506,0.8509,0.848,0.8481,0.8473,0.8473,0.8466,0.8467,0.8451,0.846,0.846,0.846,0.846,0,0.8725,0.8707,0.8687,0.8672,0.8652,0.8638,0.8618,0.8606,0.8589,0.8573,0.8563,0.8548,0.853,0.8513,0.8502,0.8482,0.8476,0.8469,0.8466,0.847,0.8471,0.8462,0.8462,0.846,0.846,0.846,0.846,0,0.8714,0.87,0.8675,0.8652,0.8647,0.8633,0.8613,0.86,0.8588,0.8568,0.8563,0.8544,0.8524,0.8509,0.8482,0.8475,0.8453,0.845,0.846,0.8459,0.8452,0.8452,0.8429,0.8426,0.8437,0.8437,0.8437,0,0.8702,0.8688,0.8665,0.8654,0.8643,0.8625,0.8612,0.8599,0.8586,0.8564,0.8554,0.8534,0.8516,0.8486,0.8469,0.845,0.8446,0.844,0.8443,0.8448,0.8446,0.8447,0.8446,0.8439,0.8439,0.8439,0.8439,0,0.8682,0.8677,0.866,0.8641,0.8627,0.8611,0.8595,0.8586,0.857,0.8557,0.8537,0.8524,0.8499,0.8479,0.8459,0.8447,0.844,0.8438,0.8435,0.8438,0.8445,0.8442,0.8459,0.8438,0.8438,0.8438,0.8438,0.8438,0.867,0.8658,0.8641,0.8622,0.861,0.8596,0.8583,0.857,0.8554,0.8533,0.8526,0.8506,0.8489,0.8461,0.8449,0.8434,0.8433,0.8429,0.8428,0.8427,0.8427,0.8448,0.843,0.843,0.843,0.843,0.843,0,0.865,0.8639,0.8623,0.8602,0.8588,0.8585,0.8568,0.8557,0.8539,0.8524,0.8508,0.8487,0.8469,0.8453,0.8434,0.8425,0.8422,0.842,0.8421,0.8418,0.8428,0.8433,0.8424,0.8424,0.8424,0.8424,0.8424,0.8424,0.8638,0.8618,0.8611,0.8585,0.8574,0.8555,0.8546,0.8533,0.8521,0.8498,0.8483,0.8474,0.8459,0.8439,0.8423,0.8419,0.8412,0.8412,0.8407,0.8417,0.8417,0.8418,0.8422,0.8411,0.8411,0.8398,0.8398,0.8398]}]]